Location: Goll?ig?dem
(16.6773°N, 80.7332°E)
Time: 05:53:34
(UTC+00:00)

CENTAUR R/B - Pass Details

Date: 21 April 2021
Orbit: 742 x 1446 km, 63.4° (Epoch: 18 April)

Event Time Altitude Azimuth Distance (km) Brightness Sun altitude
Rises 14:43:21 0° 321° (NW) 4,463 6.9 -25.8°
Reaches altitude 10° 14:46:29 10° 314° (NW) 3,527 6.3 -26.5°
Maximum altitude 14:54:24 38° 250° (WSW) 2,070 4.4 -28.2°
Enters shadow 15:02:10 10° 186° (S) 3,445 5.2 -29.9°
